GFSWCAN_2pvu_pres_234.txt.gz
Presure
321 325 338 320 367 376 382 379 315 271 266 259 254 248 240 244 254 245 244 236 236 236 239 231 233 244 248 247 257 254 261 276 262 288 283 280 286 247 231 225 227 229 229 226 214 217 209 198 209 205 216 207 200 192
291 295 311 319 329 341 354 357 366 367 354 305 269 271 256 267 259 254 229 239 237 232 225 235 238 231 231 244 257 280 273 269 271 275 277 270 261 236 218 231 229 224 232 230 230 217 192 181 211 215 206 194 190 194
297 293 292 292 298 308 321 334 345 344 340 338 314 312 268 264 263 262 258 255 253 246 244 246 247 260 261 287 279 270 277 275 267 264 272 249 235 216 221 228 236 236 229 226 217 178 209 207 203 195 195 191 198 179
317 297 283 286 282 283 289 298 316 326 329 324 326 330 300 296 269 265 255 250 250 255 269 258 259 296 293 277 283 282 263 239 248 263 246 234 226 227 220 227 230 226 216 208 188 206 201 201 198 188 185 190 175 206
426 323 314 303 289 281 281 279 282 292 306 313 320 322 312 307 304 296 287 280 282 281 278 293 295 288 291 273 255 252 282 262 252 231 231 225 228 226 227 230 224 220 178 207 202 195 201 157 195 179 171 207 194 182
427 437 441 323 312 302 291 282 279 279 276 279 290 301 306 306 306 302 294 291 294 305 305 294 282 254 249 266 275 268 289 260 253 231 226 227 226 229 229 229 216 204 199 197 168 202 178 181 186 209 198 198 184 168
409 424 430 428 364 319 305 296 287 273 275 277 272 269 268 269 276 287 284 267 264 266 263 276 270 268 270 273 289 310 249 240 231 226 223 219 219 222 222 212 204 191 192 177 200 189 169 190 204 195 192 188 198 189
442 417 414 411 408 400 334 313 302 294 284 277 270 272 272 274 276 272 265 263 271 271 276 275 280 278 295 312 300 259 233 226 225 219 220 217 214 214 211 201 195 205 190 157 185 202 203 182 169 192 183 196 199 206
397 388 394 400 401 409 411 410 338 315 300 291 286 281 280 283 283 279 275 275 283 290 297 306 279 292 301 286 248 236 228 218 218 219 219 194 220 213 205 207 171 172 189 202 199 193 181 198 197 186 195 202 209 232
369 375 381 383 385 384 385 392 399 408 338 314 304 299 300 293 291 298 298 302 310 312 311 331 281 288 244 226 231 228 215 215 217 215 212 217 208 191 167 171 190 202 206 169 172 178 188 183 198 202 194 202 273 269
375 369 363 360 362 363 357 355 363 370 383 368 383 398 396 344 343 346 347 354 365 354 362 341 312 240 186 230 227 217 216 217 214 209 215 205 187 204 187 199 172 171 180 187 208 172 178 191 175 194 236 247 213 221
341 344 348 352 349 348 350 352 358 365 366 369 372 373 373 375 384 389 402 409 425 443 450 372 244 229 231 223 218 209 223 191 206 189 192 202 188 161 154 193 170 173 182 187 192 199 207 180 196 245 231 210 217 246
321 324 324 325 329 334 336 337 335 336 340 347 353 358 368 377 399 407 427 445 441 304 255 242 239 225 229 216 221 217 207 213 185 171 189 182 179 201 190 182 198 186 180 180 190 178 189 237 223 218 206 218 240 304
316 316 316 318 313 309 318 320 323 323 335 348 366 376 390 407 426 433 270 256 251 238 228 235 226 220 217 222 211 212 201 213 211 166 167 199 206 177 180 197 179 181 198 181 216 254 224 213 210 209 219 288 300 312
301 303 304 295 295 307 312 319 320 324 334 354 346 278 271 262 256 250 245 243 238 233 226 219 215 215 216 198 208 187 188 186 189 197 184 206 186 192 179 176 183 193 201 211 222 213 211 203 200 211 282 301 311 323
293 294 291 295 302 305 308 324 312 290 266 255 251 245 242 236 236 234 224 225 218 216 211 214 215 192 182 199 204 213 198 212 207 188 176 168 190 184 172 183 204 179 240 214 209 204 199 207 192 242 310 311 330 327
288 286 291 296 303 310 316 265 254 244 245 240 235 234 232 230 225 222 225 220 213 225 206 218 214 170 167 211 204 178 155 178 156 180 177 184 191 170 178 176 253 215 208 202 206 205 201 215 229 246 307 310 336 321
290 298 294 313 311 268 247 244 245 242 233 233 233 229 224 222 220 212 216 207 196 206 214 174 171 205 204 202 197 175 207 201 195 184 190 189 195 182 219 249 203 202 202 207 201 191 202 222 242 286 315 309 335 321
325 318 320 290 237 238 249 243 240 226 238 234 224 224 227 219 220 207 214 189 201 183 190 177 211 211 190 181 200 202 181 178 191 199 172 191 183 243 204 201 200 205 200 199 200 198 207 224 230 274 316 308 331 329
308 237 242 252 243 244 239 234 224 213 227 210 222 221 210 210 210 213 208 204 191 211 198 165 186 206 198 181 205 177 186 176 193 179 195 226 246 199 198 201 200 194 195 198 196 195 209 217 238 246 307 309 332 337
237 237 244 250 241 235 213 215 226 219 219 207 214 215 217 169 212 217 171 217 190 173 207 222 221 220 189 176 188 181 180 168 184 218 233 248 199 199 202 197 192 192 191 195 201 209 211 212 231 257 289 318 324 341
221 238 242 235 218 228 220 219 214 215 208 214 189 225 186 193 225 208 192 183 183 178 202 192 184 183 185 179 180 179 211 191 212 239 241 199 200 204 198 191 190 189 195 199 196 209 214 212 224 236 262 315 316 349
224 227 234 234 234 229 210 219 212 212 199 184 198 193 191 184 186 189 190 180 205 214 208 194 188 192 198 193 193 185 198 225 250 238 199 200 200 199 193 190 195 195 193 196 196 206 211 214 221 234 261 261 329 339
229 243 221 239 221 223 217 206 209 204 202 215 228 191 183 215 203 176 196 192 200 185 177 189 181 181 218 213 201 185 234 250 210 200 200 199 200 197 191 192 194 194 195 202 204 201 212 213 218 227 240 260 269 327
225 230 230 237 228 193 190 217 212 177 219 186 189 169 213 218 192 197 197 193 204 178 184 201 183 184 206 210 230 255 246 201 202 200 201 203 196 192 190 191 191 193 201 203 205 201 211 211 216 225 234 249 262 283
198 179 184 215 216 209 222 193 217 199 213 212 203 186 176 181 199 187 186 196 189 225 213 184 201 189 202 256 247 202 201 202 199 200 203 194 192 190 196 186 192 199 199 198 206 202 212 211 213 224 228 246 257 265
223 214 223 195 197 212 208 182 196 208 230 191 195 190 206 194 205 186 196 180 188 195 199 195 190 229 248 234 201 201 196 196 200 201 193 191 193 192 200 194 196 198 204 197 209 203 214 211 214 221 227 237 254 259
215 197 187 205 218 189 191 217 192 226 186 221 193 199 197 199 185 189 197 210 209 238 204 203 241 244 222 202 201 199 194 196 198 194 193 193 196 202 199 194 198 203 203 202 209 204 214 213 215 219 226 238 240 255
223 219 203 187 219 225 220 195 221 201 202 195 200 190 188 188 193 199 187 188 215 204 242 245 237 212 201 201 202 204 201 198 198 192 197 202 199 197 195 196 199 200 201 205 211 205 215 212 215 218 226 229 243 245
204 185 198 187 214 200 187 227 202 190 186 219 213 191 189 198 194 202 200 203 219 247 239 228 211 204 204 194 201 202 195 197 194 200 202 198 195 193 199 202 202 198 202 205 211 205 217 213 217 218 226 229 241 247
210 206 217 224 187 203 196 188 196 212 216 189 192 198 211 228 196 201 193 242 242 237 222 211 204 204 201 196 203 190 192 195 200 202 194 193 196 194 200 201 201 197 203 205 210 209 216 211 218 219 226 228 239 244
203 216 204 201 216 201 193 190 189 220 192 233 241 187 193 241 242 244 241 240 229 215 205 206 204 211 191 194 199 192 193 196 202 199 195 195 196 196 201 201 201 195 205 208 209 215 216 214 216 220 226 233 243 243
249 237 252 250 250 254 215 264 266 262 263 253 252 257 245 243 242 238 230 221 211 206 204 207 210 211 199 200 194 196 202 195 203 198 193 194 195 197 204 203 196 196 207 214 211 216 216 216 216 224 226 241 245 245

GFSWCAN_2pvu_pres_237.txt.gz
Presure
346 364 381 406 366 317 313 302 278 275 270 266 261 253 249 235 235 218 227 228 236 236 223 223 229 236 231 223 218 190 211 224 226 227 229 237 245 249 253 268 282 291 280 272 275 258 242 222 220 232 212 209 206 209
329 337 352 370 388 401 319 293 311 311 284 273 262 262 256 247 240 237 239 237 236 235 229 229 236 236 234 237 226 230 223 228 228 227 232 236 235 246 265 280 289 279 262 260 256 246 230 227 218 215 218 215 210 206
315 321 326 338 355 375 390 302 269 317 285 288 270 264 253 250 250 249 241 240 242 240 243 230 218 224 230 236 235 228 227 234 237 224 232 225 245 248 289 288 268 256 252 241 246 236 225 214 230 222 209 208 204 201
302 303 315 321 330 344 360 378 387 396 277 294 297 282 264 259 259 260 254 248 249 244 238 231 233 223 225 233 243 240 234 232 227 237 239 246 270 292 266 260 251 250 247 244 240 221 223 220 217 214 208 166 199 173
329 300 299 305 311 319 332 348 363 372 377 383 316 265 264 261 251 256 255 251 251 246 238 233 226 232 234 243 245 235 235 244 235 235 247 270 298 257 255 244 250 240 239 232 224 222 222 215 207 204 199 178 206 203
427 360 293 296 292 297 308 320 334 347 355 360 367 368 297 273 259 257 259 267 261 252 249 245 246 247 249 250 257 251 244 241 244 254 284 300 253 252 257 240 238 235 230 235 230 221 214 207 198 185 203 208 196 210
395 432 305 291 291 291 282 289 305 313 328 341 342 345 351 347 336 294 278 262 253 253 256 257 257 253 260 260 254 247 238 262 265 285 307 261 238 260 239 234 232 222 220 223 221 213 193 191 202 202 197 211 193 188
418 405 433 293 292 287 287 280 280 282 294 306 321 326 326 327 330 335 338 322 316 283 301 295 292 254 249 250 252 261 266 275 275 288 260 250 243 241 234 229 220 216 221 221 209 188 198 195 169 201 192 190 177 190
390 401 416 425 298 292 267 277 276 275 270 276 286 297 303 306 314 318 317 308 309 311 315 292 281 285 275 273 278 274 285 289 270 249 263 265 233 232 228 227 216 221 211 208 203 201 189 211 213 184 196 184 200 210
402 403 412 423 384 300 291 270 262 260 266 268 266 274 290 298 306 304 302 298 306 308 310 303 306 306 293 282 291 270 260 272 291 252 247 235 230 225 215 219 202 213 207 199 181 203 154 181 174 159 190 185 200 237
376 395 410 418 409 375 299 285 278 268 265 268 269 272 277 276 280 289 294 302 312 316 315 303 298 300 294 268 249 263 271 298 255 235 233 233 217 221 206 191 216 206 199 201 186 186 186 198 185 193 201 218 221 209
409 404 395 382 387 384 406 307 291 286 283 274 274 278 279 275 280 279 286 287 289 292 278 265 255 253 259 249 265 272 315 241 234 239 226 210 216 200 187 208 198 167 206 178 185 189 176 205 188 202 234 212 196 201
395 384 378 368 368 380 393 393 323 309 295 287 287 287 283 273 284 295 289 282 286 266 272 257 260 265 263 281 281 293 240 231 231 220 214 208 212 180 208 203 196 185 184 177 187 170 196 199 221 212 212 201 204 207
374 370 370 371 381 389 397 394 381 352 318 309 304 297 303 301 307 304 291 287 290 276 278 284 301 268 262 308 244 239 233 230 219 207 207 209 212 206 187 194 160 171 188 207 209 203 211 234 208 192 201 210 192 214
346 348 349 353 360 372 374 374 371 372 383 364 347 330 332 336 325 316 313 307 310 316 288 297 290 296 252 239 240 230 225 212 206 200 187 200 198 187 177 191 192 158 194 190 181 247 206 198 203 200 188 213 200 213
330 333 337 340 346 349 356 359 362 360 368 383 399 400 417 416 419 404 415 417 427 443 437 331 338 242 237 230 225 221 208 201 212 219 189 192 179 189 180 180 181 200 213 232 228 202 199 200 197 197 200 209 212 216
320 321 315 313 320 326 332 336 344 354 350 361 368 373 377 374 384 386 402 407 402 406 269 245 235 228 229 215 225 198 181 193 186 202 173 198 169 182 178 193 188 196 241 204 202 197 198 194 196 190 203 206 212 218
306 306 311 318 321 320 331 295 294 292 289 291 293 286 277 269 262 249 245 254 250 244 232 230 229 223 214 209 207 215 211 203 158 203 186 184 187 177 194 193 197 240 204 202 196 193 193 194 197 189 204 205 209 218
306 297 277 275 274 273 276 280 272 257 253 252 250 245 244 244 243 237 240 238 229 225 233 226 217 217 214 206 185 171 179 195 191 172 175 181 195 200 212 211 231 203 202 197 191 191 197 194 203 195 206 206 211 220
270 267 268 266 268 255 248 245 247 241 239 237 236 234 231 231 231 230 233 224 224 221 221 221 184 186 207 209 188 189 201 183 181 181 190 190 184 213 211 224 201 200 197 191 195 197 194 203 199 198 205 206 216 220
264 251 254 247 246 241 241 234 239 228 232 230 226 225 228 227 224 227 223 225 187 219 178 219 179 202 218 180 195 189 221 198 187 192 205 185 219 179 227 202 200 193 197 197 196 191 194 198 198 203 210 206 215 222
241 244 237 236 242 233 231 234 225 222 226 223 230 226 226 225 221 222 210 215 218 195 212 219 187 201 178 169 161 165 197 184 187 179 180 219 197 239 203 201 193 200 195 190 191 194 197 201 207 207 212 208 215 221
238 239 225 231 229 235 220 236 226 237 225 222 233 218 216 221 217 202 204 221 202 190 187 183 204 164 191 192 196 190 192 184 183 182 189 240 242 204 201 200 201 194 188 195 191 195 194 199 207 206 213 212 219 224
226 226 233 227 229 221 228 210 215 217 234 220 206 223 220 215 201 178 191 182 188 193 201 181 193 191 187 185 188 202 176 195 212 234 216 239 203 202 201 202 193 191 183 198 199 197 196 198 203 207 214 216 218 220
238 226 223 220 200 240 224 205 220 215 225 215 216 195 199 199 210 228 182 179 181 188 217 198 199 183 180 188 194 198 202 192 260 248 232 204 204 197 203 194 192 194 195 199 196 196 197 197 201 209 215 215 218 215
216 221 224 216 224 208 212 213 199 217 196 201 221 219 210 178 186 203 216 188 179 201 185 178 204 202 189 177 193 199 183 203 249 213 203 203 200 200 198 191 194 197 200 199 200 200 198 200 202 210 215 215 222 217
213 211 211 216 222 210 216 201 185 196 186 209 193 199 194 213 200 187 187 183 209 208 199 203 198 199 192 197 209 199 236 247 213 204 205 199 194 197 198 198 202 200 194 193 200 200 198 198 202 208 216 215 221 220
218 219 217 222 193 216 216 217 211 206 217 207 213 184 198 211 200 198 211 193 203 195 187 194 200 208 192 213 213 189 243 228 206 203 202 194 194 201 200 198 202 198 195 193 200 202 201 194 203 210 215 216 217 224
228 185 220 216 218 191 181 211 194 222 178 188 179 192 187 185 210 196 186 210 219 207 189 205 216 194 191 192 230 239 231 214 207 202 206 202 198 199 194 201 198 194 196 193 200 204 204 194 202 210 215 215 216 224
224 224 182 209 203 197 197 187 223 207 195 200 190 184 191 193 187 188 187 185 194 194 185 191 194 203 188 190 239 232 216 206 205 198 197 200 195 195 195 203 197 192 193 195 199 206 206 199 204 216 216 213 221 225
221 213 222 207 219 205 204 211 195 201 197 193 208 208 198 199 199 210 194 191 207 201 196 192 198 199 241 239 231 221 212 205 207 187 193 205 194 200 198 201 197 191 195 197 199 208 205 205 210 213 217 212 221 227
198 189 191 207 197 196 189 226 213 202 199 186 198 181 180 186 190 196 193 195 196 194 204 237 234 239 235 229 224 216 212 208 209 192 195 199 200 202 203 200 195 186 198 199 202 205 205 209 219 209 214 216 221 224
229 224 190 221 186 199 217 223 213 201 200 197 208 206 198 202 208 199 204 230 235 231 201 237 237 236 229 225 217 213 209 211 211 210 202 200 196 202 202 195 192 194 201 200 207 205 208 217 216 205 219 229 225 225

GFSWCAN_2pvu_pres_240.txt.gz
Presure
382 325 318 299 287 280 270 276 273 231 251 253 183 207 236 213 247 240 228 196 239 222 212 209 224 212 175 180 213 208 229 189 183 228 217 209 226 190 221 221 211 220 232 227 232 233 244 290 291 292 287 269 251 224
375 399 332 328 322 309 296 279 261 271 257 182 259 239 255 234 245 169 222 236 222 179 223 178 229 232 235 203 230 223 226 219 223 227 220 230 231 220 224 218 198 235 230 237 229 251 282 274 280 266 192 234 236 202
336 355 375 398 427 337 311 311 279 269 268 259 268 259 245 247 249 246 243 231 244 238 204 205 223 230 218 223 210 223 222 213 218 216 240 236 237 240 226 226 233 234 234 226 234 272 276 276 273 261 238 219 227 219
317 327 338 357 380 402 426 340 319 298 283 286 269 264 264 257 256 252 203 246 209 194 246 233 226 218 231 235 229 225 222 230 226 216 237 234 233 239 236 232 235 239 230 244 271 271 272 265 261 244 233 223 213 213
299 310 320 331 346 363 380 402 410 330 318 303 291 286 276 261 260 255 258 253 253 253 250 240 239 210 216 226 213 222 228 225 228 225 218 224 225 228 233 187 240 227 232 272 267 265 264 255 228 224 218 217 211 206
386 297 304 315 322 334 348 366 381 399 331 316 312 304 286 281 269 265 268 270 266 258 254 256 247 230 228 230 229 227 222 232 226 227 227 238 229 236 247 251 236 244 273 263 265 259 241 231 222 215 206 206 200 206
406 423 308 299 307 316 327 335 352 371 388 406 326 312 301 287 280 278 280 267 248 254 266 263 255 245 239 235 235 232 232 234 226 230 232 225 235 245 259 243 269 271 261 255 259 238 231 216 211 204 200 204 202 194
386 396 425 312 291 301 307 317 323 342 360 379 379 269 277 269 300 297 292 284 280 277 267 265 261 247 246 246 245 244 242 239 240 231 235 242 250 261 246 272 268 251 251 254 226 227 215 204 205 196 190 202 191 194
382 387 405 429 294 287 297 305 310 321 335 349 358 360 354 351 321 264 299 280 279 276 272 271 262 250 246 246 246 247 242 240 242 245 246 247 257 252 279 270 257 236 247 231 217 212 202 200 201 197 202 192 187 200
398 390 405 427 306 282 283 293 299 304 312 325 327 330 342 347 361 353 339 278 275 275 283 285 270 265 253 248 246 247 252 252 250 251 251 257 284 282 260 260 228 248 241 218 210 205 200 186 193 192 198 182 213 219
381 372 386 425 310 286 274 285 287 289 295 301 311 325 341 342 344 336 337 339 341 341 308 285 275 263 252 253 252 258 261 264 286 285 281 311 255 246 290 264 232 215 220 207 196 181 204 195 194 191 188 210 235 197
374 411 406 414 315 281 269 275 274 281 283 296 306 317 328 325 328 330 209 341 349 350 350 341 335 326 320 327 307 306 291 308 303 294 315 261 261 256 250 233 217 206 202 192 198 211 186 203 192 189 210 209 196 193
351 373 397 398 319 280 265 268 275 276 273 274 284 291 302 312 328 342 342 348 349 342 325 316 306 303 304 303 305 310 315 317 314 265 266 246 246 243 224 221 205 205 203 193 195 176 172 194 175 209 214 197 193 199
398 378 395 389 322 275 276 266 270 276 274 274 278 279 287 298 309 316 312 303 297 298 294 293 293 295 294 297 302 305 311 260 280 248 233 237 245 199 219 208 208 181 176 190 201 202 180 192 228 207 198 196 194 200
407 404 383 388 329 285 274 275 268 265 264 273 273 266 272 269 267 263 256 267 158 274 286 288 291 289 293 305 303 263 303 255 237 229 236 234 223 209 209 206 186 188 173 187 179 206 187 232 201 198 195 183 193 205
345 346 349 370 354 300 281 276 276 274 268 269 263 263 262 260 260 256 252 254 261 267 272 281 280 283 279 280 266 250 241 233 232 232 220 216 216 203 211 182 182 179 180 179 200 206 231 206 200 193 191 194 194 208
355 344 353 372 374 319 300 282 279 278 280 280 273 272 268 264 258 261 258 260 261 273 272 262 269 270 255 313 252 241 225 228 225 221 213 205 203 184 163 191 182 182 208 197 178 233 204 203 193 188 193 199 191 205
332 366 357 355 360 365 369 318 303 295 291 284 282 282 278 279 279 284 288 278 277 194 278 229 272 291 253 247 230 227 223 223 194 212 200 211 199 198 191 176 203 201 196 189 232 210 202 195 191 194 195 197 190 205
338 339 346 352 353 361 374 389 395 369 360 321 317 317 319 323 323 326 329 334 288 262 300 306 307 251 236 229 225 226 227 232 203 183 209 186 184 182 181 196 192 204 197 230 208 202 197 194 191 190 193 194 195 205
323 327 334 341 342 344 355 360 365 371 380 380 383 383 388 390 396 409 420 418 441 448 291 258 236 240 230 229 218 225 214 200 189 186 193 189 182 184 178 201 173 181 230 212 202 196 195 193 192 193 195 194 196 208
319 323 325 335 335 328 337 333 339 340 342 344 350 359 362 286 281 279 273 266 256 253 243 240 235 230 218 189 207 206 189 206 194 182 160 189 189 177 203 203 247 234 214 203 201 195 194 189 196 194 194 198 199 205
314 306 281 273 271 270 266 261 256 256 257 255 254 252 252 254 249 241 242 248 248 242 235 231 228 227 219 188 196 202 192 195 180 197 190 175 190 177 208 186 238 219 206 201 198 194 192 190 196 197 199 200 198 205
259 255 255 251 251 249 242 246 240 239 243 244 247 245 245 244 242 242 235 235 235 234 224 219 217 210 206 189 210 191 176 200 192 193 190 204 195 185 201 236 227 208 201 200 194 189 192 198 197 198 200 201 194 200
240 238 241 241 240 235 234 233 235 237 234 229 235 230 242 236 232 234 236 225 194 212 163 181 193 174 207 190 177 179 199 195 185 200 208 205 194 243 247 231 211 202 201 198 192 190 196 198 190 196 201 203 207 198
228 228 238 232 224 232 237 232 235 230 231 234 236 224 221 211 221 194 217 197 186 218 220 191 185 214 216 202 205 200 190 190 190 191 203 197 183 247 230 213 202 200 197 195 194 195 201 198 195 194 199 202 206 199
232 233 237 231 228 233 227 224 226 229 227 215 225 228 217 206 204 194 232 184 183 210 174 181 204 185 188 193 190 188 202 179 185 183 198 249 246 228 212 204 198 194 195 200 194 202 200 194 196 193 196 200 204 198
225 226 231 227 224 229 217 222 225 226 216 199 216 207 184 205 206 197 187 195 196 180 194 196 194 200 189 191 205 190 193 196 207 199 242 198 231 216 206 205 194 193 196 196 195 202 200 193 190 195 195 199 204 197
225 225 222 204 212 222 217 220 215 218 218 218 220 194 196 213 180 192 195 196 197 182 191 188 177 192 194 185 190 210 203 189 195 209 217 241 229 215 207 204 201 200 194 196 194 201 201 194 189 197 198 199 206 200
232 217 210 226 209 211 227 215 218 192 193 202 202 204 200 188 195 210 183 191 187 185 189 177 210 202 200 198 215 196 197 203 218 201 243 239 226 215 210 201 198 203 194 197 202 201 199 197 193 195 199 197 205 207
218 211 210 214 207 228 207 204 210 207 218 206 190 190 184 196 207 197 191 183 180 194 205 190 191 203 199 196 199 183 198 185 206 191 238 234 222 213 208 204 191 198 207 198 203 203 202 189 194 196 200 203 203 208
212 211 207 216 218 211 211 211 186 202 181 189 197 199 197 191 191 191 191 193 194 203 203 202 197 195 196 190 200 210 196 193 231 192 238 228 218 212 207 211 193 194 199 197 203 202 193 194 196 204 206 204 205 211
214 206 213 216 222 185 188 186 180 211 193 216 209 214 187 187 194 177 186 207 211 203 197 191 190 189 187 195 188 203 201 203 241 238 235 228 224 215 212 212 212 210 207 200 201 194 201 195 206 205 211 205 212 222
218 200 211 214 217 219 218 200 204 202 213 193 217 187 176 187 186 192 191 198 199 192 182 195 194 206 208 200 213 242 195 204 234 238 232 228 222 214 210 212 211 208 203 203 203 213 204 210 202 208 205 215 224 226

GFSWCAN_2pvu_pres_246.txt.gz
Presure
341 423 371 392 375 323 305 293 301 283 236 255 235 284 226 270 235 222 215 192 211 143 205 219 191 196 165 198 189 171 195 218 194 194 204 194 199 168 173 197 209 208 195 204 193 188 204 204 221 215 215 223 228 255
385 415 379 375 384 348 312 294 291 286 275 255 244 258 230 179 219 229 199 214 224 206 205 201 209 184 228 205 185 198 222 201 221 199 187 198 207 177 204 181 199 207 200 196 206 189 204 225 209 220 223 216 214 258
414 436 410 366 386 354 324 317 291 284 290 278 276 222 265 282 208 229 222 223 201 185 203 207 197 206 193 221 191 224 179 214 220 184 193 222 223 210 215 193 187 195 196 205 190 202 216 215 215 227 224 230 254 290
426 465 457 363 371 367 330 308 311 295 287 288 285 266 278 188 228 188 214 208 216 220 197 205 203 212 203 218 195 188 189 221 175 198 180 193 209 212 208 168 159 197 180 196 200 214 215 227 214 222 231 248 286 280
367 406 442 467 358 361 362 327 307 305 303 277 266 286 257 282 235 227 238 200 228 242 248 255 198 204 206 205 209 223 182 203 194 180 209 230 220 232 228 168 207 215 220 223 216 206 229 216 213 226 237 262 294 249
325 350 392 423 454 351 353 337 319 312 301 282 289 282 267 276 270 275 268 181 226 246 251 256 239 225 185 210 187 231 206 219 229 230 233 206 204 211 233 216 219 212 199 201 215 220 208 213 225 232 247 283 256 231
307 316 337 367 410 434 349 344 341 318 301 293 284 276 259 269 273 264 261 225 231 240 245 252 229 252 245 242 236 221 218 233 244 205 240 239 244 242 229 221 224 214 226 229 219 209 210 223 236 241 265 280 232 226
299 307 310 328 351 391 418 353 344 340 321 305 287 279 270 269 261 177 262 260 233 215 223 255 241 162 240 203 193 235 231 234 204 185 211 234 227 231 231 208 221 215 215 231 229 215 222 234 236 252 293 236 225 219
295 297 306 313 324 347 370 401 346 339 325 309 295 288 281 276 274 269 259 262 255 263 273 266 257 258 243 249 238 242 213 236 244 249 236 250 243 237 227 223 219 219 236 233 224 223 230 244 242 280 246 224 222 206
373 304 294 302 314 321 338 359 382 406 327 328 310 297 292 292 279 275 276 274 278 271 274 267 262 267 260 252 206 254 238 243 237 240 244 249 240 227 234 222 220 224 231 234 229 231 244 241 274 283 225 224 186 214
375 378 383 296 296 305 318 332 342 369 383 333 313 319 305 207 284 282 279 278 283 277 275 267 264 208 249 250 239 246 253 257 251 247 252 251 239 231 234 233 227 230 234 234 239 244 244 270 281 227 222 213 203 195
368 371 380 395 327 293 299 307 320 333 354 380 383 372 328 318 304 303 300 290 86 205 288 275 195 261 254 248 246 255 254 260 259 250 252 232 239 247 238 237 233 238 244 238 243 245 272 285 226 222 212 202 200 201
366 359 370 377 395 325 286 293 306 313 332 342 360 372 393 337 326 331 332 327 316 300 102 192 162 263 235 206 259 262 260 262 257 257 262 256 243 237 229 197 234 222 245 252 245 271 259 225 220 206 205 199 201 211
334 357 366 364 397 412 283 292 294 308 307 328 341 357 364 394 348 330 304 235 309 87 281 209 146 143 259 114 237 273 270 269 272 277 199 264 254 247 243 239 254 183 212 253 297 287 227 219 208 207 199 202 201 219
354 350 353 370 399 408 285 283 286 299 305 313 331 345 354 361 155 146 389 257 111 282 133 147 246 304 173 200 305 142 305 310 297 303 265 252 254 263 266 222 221 253 267 312 244 230 217 197 201 196 184 202 220 218
340 347 360 367 392 376 283 279 283 290 301 309 319 320 236 327 346 358 146 147 396 302 152 222 205 164 366 300 331 328 323 304 273 258 274 271 269 269 264 177 252 278 323 242 231 215 197 199 198 186 196 210 218 201
351 357 364 376 372 369 275 275 281 288 301 308 307 305 310 321 333 339 341 350 355 355 353 365 358 367 378 386 379 368 275 293 310 269 260 266 264 263 261 273 292 259 238 228 213 198 205 193 206 197 210 227 214 196
373 381 395 423 374 362 277 271 280 296 294 292 296 304 304 314 318 318 327 333 333 332 336 344 346 356 182 352 335 321 324 318 314 315 305 289 309 275 313 304 248 235 218 212 209 201 192 206 190 203 228 217 203 197
366 364 363 373 375 294 280 273 274 289 282 286 293 292 302 305 309 312 311 310 316 323 328 333 243 345 338 323 300 316 320 312 298 298 306 290 299 301 255 241 226 206 197 210 197 197 201 187 197 222 228 212 199 197
336 343 350 350 303 280 278 268 281 280 279 278 286 290 294 300 302 300 302 308 227 316 214 329 324 145 273 308 311 305 293 290 296 294 295 295 256 250 232 206 212 212 207 193 213 209 186 201 211 230 220 203 200 194
337 329 321 310 286 283 272 263 279 273 265 271 275 278 282 295 300 301 307 317 318 130 308 299 296 295 297 291 295 285 288 283 257 286 254 246 229 223 212 172 214 199 175 210 203 211 192 201 211 230 217 199 196 197
316 315 311 289 288 262 259 263 270 261 269 270 246 272 276 284 293 288 283 290 291 288 288 292 291 288 288 288 281 291 287 289 253 242 231 220 205 213 204 207 200 174 169 186 190 200 198 199 234 228 215 199 196 199
313 302 302 290 291 271 263 262 259 267 266 273 271 260 252 257 260 264 267 277 281 284 289 288 283 295 295 295 282 262 253 237 223 224 200 215 209 208 197 191 217 191 190 197 189 198 208 226 231 224 207 200 194 196
308 308 298 303 286 265 271 266 270 266 263 260 251 257 257 263 269 261 267 275 284 285 287 284 289 284 274 269 253 231 222 219 215 219 198 209 202 192 211 215 203 204 203 182 195 237 239 235 229 218 202 196 193 197
319 309 295 297 290 292 268 273 267 266 264 268 268 274 274 277 283 254 280 211 270 273 254 265 272 263 244 229 223 226 218 212 200 209 196 197 209 212 188 182 193 201 204 203 203 248 241 232 221 205 202 200 201 201
382 362 317 309 298 292 295 288 290 291 296 295 301 303 302 314 316 329 237 238 297 278 280 293 239 232 223 211 212 207 207 209 192 197 205 210 212 171 181 197 194 195 187 197 202 246 235 224 217 212 208 205 200 193
331 338 352 368 376 377 377 373 374 360 359 348 347 351 359 368 379 389 392 276 279 261 237 228 224 213 215 205 207 210 196 176 188 198 198 198 178 183 197 207 210 210 209 187 190 243 236 227 220 215 212 211 209 208
283 286 290 294 295 298 300 305 313 314 313 322 330 336 281 342 355 307 253 230 236 227 204 216 204 203 211 192 196 192 209 206 187 200 211 174 199 194 194 207 212 193 205 208 191 239 237 233 228 224 223 221 215 213
264 266 267 268 270 272 274 274 272 270 263 273 264 247 240 239 232 233 222 227 226 219 210 202 210 208 190 199 188 188 190 202 199 205 192 218 211 198 212 204 207 192 195 194 196 204 237 236 235 229 225 224 223 222
254 250 247 249 245 238 239 238 237 239 238 235 235 234 228 219 222 221 218 210 209 205 213 197 197 200 198 209 203 203 204 203 189 201 194 184 183 183 196 196 198 210 199 197 217 249 207 236 235 235 230 228 227 226
231 231 241 231 231 233 227 226 224 223 223 218 219 214 211 212 213 210 212 207 208 204 204 207 201 194 202 203 202 198 194 192 192 212 189 182 197 198 194 190 201 200 195 197 198 247 249 241 231 230 232 232 232 229
236 230 227 223 222 221 221 214 216 210 211 203 206 210 202 189 208 199 204 188 186 204 189 181 184 188 189 197 198 195 185 189 194 196 203 195 185 211 191 192 195 192 207 210 209 249 223 240 238 237 233 233 236 235
222 216 215 214 218 219 214 212 207 211 202 210 199 207 181 211 195 199 204 208 200 193 204 205 206 204 200 180 202 192 194 195 194 182 206 202 183 206 204 198 194 201 195 199 201 215 245 247 242 239 239 237 237 237

GFSWCAN_2pvu_pres_252.txt.gz
Presure
310 313 320 325 335 338 335 329 329 334 331 306 322 300 233 189 211 253 203 239 192 214 184 212 158 181 198 192 167 199 197 196 195 206 194 199 218 172 201 183 179 165 208 176 158 175 217 175 158 214 195 158 201 218
317 321 323 327 343 351 350 348 336 344 327 322 306 306 304 234 224 247 170 257 224 235 205 216 178 188 196 202 190 208 184 183 164 176 221 200 207 187 217 216 190 200 209 196 187 186 197 203 209 160 174 217 190 215
330 324 324 324 327 333 347 348 345 328 328 320 307 303 304 250 263 239 252 246 228 218 182 191 227 191 181 200 189 199 183 168 228 213 207 217 199 235 186 196 196 216 170 198 204 189 181 189 186 168 210 200 216 223
336 338 322 318 330 331 332 351 342 342 319 318 309 302 308 228 280 289 221 209 279 210 218 202 237 217 200 165 190 194 210 203 196 206 223 204 214 209 194 200 190 160 190 193 172 180 194 172 177 178 178 172 195 193
373 353 342 349 345 343 327 325 340 337 330 319 315 316 302 297 296 297 278 308 239 290 236 227 214 217 216 218 237 218 227 212 234 175 213 193 205 229 208 191 188 194 190 188 159 193 190 207 219 195 192 221 215 217
316 391 371 365 361 369 368 349 338 342 337 326 316 317 307 310 295 293 293 286 287 226 278 206 240 240 238 233 231 202 228 224 222 222 238 218 201 209 188 207 203 186 192 160 143 123 175 200 200 199 219 201 226 216
297 437 390 447 442 387 381 369 364 362 353 333 324 306 303 301 300 284 288 281 282 275 245 283 233 169 158 264 245 280 281 237 250 244 232 237 236 214 227 190 180 189 176 147 197 190 192 196 191 163 226 219 224 215
291 312 457 424 423 411 385 386 397 402 428 360 323 310 303 300 298 290 284 282 288 292 296 292 262 284 245 257 232 237 260 274 284 250 245 249 227 251 194 177 194 196 97 171 107 175 190 184 203 204 226 199 181 217
282 296 351 406 416 384 380 372 384 406 404 413 372 288 304 302 299 289 284 276 282 276 280 286 240 286 282 280 276 286 273 251 268 265 257 260 190 206 157 97 101 188 185 134 214 190 205 210 223 226 209 218 223 226
281 288 311 388 390 396 382 374 377 394 415 331 347 327 327 321 300 290 287 275 275 281 280 283 282 277 286 285 273 265 238 279 180 275 224 270 275 238 156 196 187 192 196 190 193 232 169 134 216 220 231 223 206 220
284 281 296 323 376 385 408 376 379 371 379 405 358 408 338 308 296 294 289 284 284 291 291 282 281 280 274 270 281 272 272 274 282 257 244 225 219 220 157 152 204 214 188 208 232 148 228 233 227 219 204 167 207 224
278 283 284 302 326 364 379 384 381 351 391 416 193 360 384 314 294 293 293 290 292 290 286 279 280 281 269 245 269 162 189 272 222 259 225 204 241 190 185 187 198 199 191 216 223 239 231 174 220 225 212 175 223 206
284 279 281 288 303 327 363 373 383 397 373 362 340 293 354 192 313 304 302 293 296 296 288 204 155 118 257 251 111 125 267 268 267 266 269 254 236 185 188 170 125 130 137 149 217 232 241 153 224 168 246 242 234 162
292 286 278 281 288 299 324 356 380 390 336 334 337 342 349 368 329 286 304 150 279 98 239 255 267 146 219 132 270 140 124 258 157 143 255 187 104 153 235 247 241 131 206 241 160 214 175 244 240 237 230 248 176 249
307 298 284 278 281 288 298 319 353 380 328 332 334 343 352 305 122 255 149 161 181 231 135 180 118 106 142 117 254 283 87 218 269 188 267 238 188 228 94 248 251 160 193 245 237 202 253 138 256 254 255 215 254 240
324 317 297 286 275 280 289 298 313 341 366 342 327 341 352 303 108 138 312 297 181 143 96 233 259 133 233 190 156 186 155 211 117 165 133 226 125 277 267 183 126 255 127 179 161 265 217 258 148 196 252 260 270 273
336 352 350 315 281 277 282 291 301 314 338 393 388 328 335 333 322 129 164 299 295 291 183 134 224 89 86 289 112 154 137 149 160 178 112 122 168 108 259 122 154 132 171 156 146 267 266 260 287 261 285 150 256 271
335 332 339 350 358 284 285 286 295 308 323 355 365 375 379 137 134 321 289 320 327 302 300 294 291 296 202 198 135 253 131 132 172 146 95 267 95 237 207 260 127 174 199 153 284 276 198 196 304 292 282 259 286 245
330 338 337 346 353 335 287 292 295 295 308 320 331 340 343 344 372 368 133 200 137 238 220 227 336 339 132 213 206 153 132 159 162 236 151 180 214 132 218 307 304 307 299 299 148 314 314 300 279 273 265 287 234 219
331 353 352 351 352 363 295 278 281 281 301 307 317 316 315 319 329 344 195 310 283 282 124 155 288 316 192 265 283 253 131 277 317 285 312 275 324 327 273 291 315 269 319 321 308 302 282 281 257 284 255 227 219 208
323 351 339 339 358 375 394 270 269 280 290 301 307 303 306 312 313 317 318 321 326 111 335 345 361 347 133 113 134 318 109 321 319 313 333 398 391 383 378 368 319 308 297 291 280 277 249 273 288 236 217 209 210 214
324 335 320 333 341 365 315 263 261 266 289 286 293 293 297 301 303 304 313 314 324 108 316 341 354 355 359 362 132 380 382 377 373 377 275 165 350 319 329 297 290 270 261 269 252 281 285 239 215 214 200 192 189 179
341 339 339 336 349 381 291 262 259 281 282 282 290 291 290 292 297 300 307 312 321 323 328 334 339 346 347 352 355 353 354 351 351 343 344 242 342 306 264 293 325 300 316 299 277 240 224 210 193 210 190 183 187 207
331 362 345 342 341 323 281 267 269 287 281 278 287 288 293 293 299 303 317 316 314 326 325 326 328 326 332 335 334 334 332 332 294 330 330 326 314 311 325 317 310 292 258 237 218 215 202 192 204 197 199 202 204 186
368 352 338 332 288 274 272 278 281 282 280 280 286 284 293 300 302 307 297 308 310 311 311 309 311 313 319 139 320 321 320 319 315 313 314 305 320 304 288 281 238 230 215 212 203 208 208 193 194 206 203 182 194 203
344 335 326 271 275 275 276 275 276 274 277 276 289 291 290 288 296 296 292 291 294 294 296 298 302 303 306 310 299 311 301 300 299 307 290 286 270 241 233 226 212 213 204 214 190 195 207 211 210 202 199 194 193 202
325 320 276 271 272 272 275 276 280 277 284 291 287 277 262 289 286 287 283 285 290 294 296 298 302 300 306 305 287 302 285 299 275 276 244 236 228 224 214 217 206 212 198 200 206 210 208 203 202 199 199 198 198 205
323 269 267 270 275 278 275 276 270 259 256 281 264 263 261 275 275 281 284 286 290 292 294 293 297 295 287 301 268 272 272 251 238 231 219 225 213 215 211 194 207 199 207 210 202 211 190 182 195 214 201 189 196 198
272 263 268 270 274 275 255 254 253 256 260 270 260 260 263 265 270 270 271 280 284 287 285 299 273 250 259 272 255 238 234 229 220 223 212 216 207 202 202 209 202 190 198 201 211 198 184 200 198 197 193 208 201 195
263 262 267 271 274 261 254 258 261 261 255 254 263 254 263 265 263 265 265 260 284 276 297 302 278 260 257 233 233 227 221 220 212 214 209 206 208 195 214 205 211 202 198 200 205 198 193 186 216 207 190 203 204 194
250 259 268 262 264 261 269 271 271 270 258 261 254 237 241 245 261 260 277 268 295 243 277 255 242 230 228 225 221 221 206 215 216 203 192 203 211 209 204 202 192 193 195 207 199 194 188 181 214 199 187 192 199 200
242 260 263 269 267 256 264 258 264 274 260 257 218 260 228 259 228 276 268 293 253 251 239 232 226 219 218 216 214 202 216 211 211 193 182 194 209 209 211 210 207 212 204 192 186 214 189 182 182 220 195 192 206 193
318 338 340 340 336 333 332 331 332 337 342 341 290 347 357 304 211 259 260 252 240 233 223 221 214 219 217 206 204 207 210 210 198 199 211 185 210 203 200 195 201 207 207 212 195 201 208 208 217 207 213 212 225 197